CAPE
342 321 257 274 239 167 280 582 67 378 115 60 4 0 0 37 128 267 441 394 337 425 726 1187 935 1105 1309 1410 1437 1320 1383 1426 1634 1902 1922 2113 2198 2217 2175 2225 2041 1701 1694 1792 1770 1930 2083 1800 1748 1802 1803 1692 1572 1890 1602 879 851 1058 1141 1388 1614 1596
220 426 323 207 149 118 116 85 118 104 52 5 16 20 16 7 32 158 136 173 362 250 261 643 1058 986 1197 1383 1116 1056 1385 1589 1537 1401 1487 1632 1864 2320 2406 2127 1793 1571 1542 1626 1625 2218 2282 1612 1855 1769 1418 1464 1723 1736 972 1152 1135 969 1243 1488 1576 1114
498 549 383 206 159 110 119 97 120 148 52 24 22 10 5 1 21 27 60 176 272 340 173 437 428 572 695 651 1081 1087 1293 1084 1278 1072 924 1049 1356 1751 2160 2018 1463 1645 1691 1591 2057 1976 2124 2005 1944 1457 1638 1757 1837 1726 944 1170 952 1004 1193 1618 1896 800
556 629 255 159 128 98 156 162 115 146 62 6 6 2 2 0 6 51 111 77 73 128 161 177 146 186 153 409 567 871 884 1152 1078 952 866 1021 1167 1379 1387 1503 1554 1676 2270 1409 1814 1901 1983 2084 2012 1969 1968 1815 1673 1706 1424 1175 1180 1350 1802 1696 1599 952
520 557 390 165 146 147 146 138 107 128 42 19 8 5 4 2 8 14 23 10 10 40 19 56 79 187 129 194 310 387 745 1027 1063 993 754 1090 1259 1493 1418 1924 1867 1629 1869 1883 1988 2072 2038 1965 1988 1926 1780 1605 1576 1744 1699 1404 1290 1747 1579 1670 1311 879
650 724 578 217 169 191 149 160 146 146 92 44 17 7 6 6 4 28 11 8 10 6 4 9 73 104 110 165 180 261 463 660 805 939 1080 1125 1179 1279 1294 1471 1535 1556 1855 1900 1980 2046 1923 1805 1723 1680 1566 1452 1451 1588 1491 1522 1519 1578 1676 1726 975 753
516 706 744 440 184 177 186 182 184 165 113 57 47 26 3 9 41 92 52 33 12 1 1 0 15 44 62 98 142 177 266 453 561 709 902 925 1056 1202 1193 1311 1412 1586 1765 1779 1851 2017 1851 1768 1762 1575 1539 1527 1581 1613 1627 1544 1536 1539 1659 1690 843 876
687 675 530 367 273 205 261 240 219 136 141 120 30 12 16 43 19 42 112 80 32 2 0 0 2 15 47 45 90 161 159 301 413 371 492 580 718 1031 1214 1278 1323 1324 1634 1886 1842 1916 1904 1776 1718 1717 1677 1631 1727 1759 1682 1587 1742 1620 1620 1566 837 648
639 595 511 325 252 215 261 297 328 260 213 81 25 48 43 19 11 10 35 33 28 15 3 2 6 11 17 39 62 149 70 140 233 255 358 411 582 855 981 1000 1071 1031 1162 1721 1849 1938 1963 1902 1788 1737 1670 1716 1841 1854 1893 1751 1624 1450 1372 1434 1008 811
710 711 781 646 407 448 363 374 417 334 213 75 103 61 47 23 32 21 37 61 14 4 12 8 10 11 11 14 27 82 65 98 91 158 228 264 352 612 729 820 859 854 955 1297 1717 1800 1974 1892 1727 1788 1747 1772 1796 1740 1808 1680 1548 1408 1468 1392 1179 924
765 1030 909 759 706 548 492 535 490 373 304 148 109 96 66 54 19 68 69 57 24 7 3 11 13 6 12 10 14 10 17 29 54 104 117 175 218 392 596 598 672 754 938 1217 1624 1926 1947 1792 1798 1767 1812 1844 1783 1748 1823 1740 1552 1342 1319 1308 1112 844
892 1135 1143 776 645 572 538 546 638 375 390 262 189 106 88 67 102 107 94 68 26 4 11 12 12 7 7 8 12 10 10 11 28 61 126 174 217 264 380 443 552 796 885 1237 1532 1860 1874 1642 1610 1603 1796 1721 1566 1485 1451 1475 1436 1418 1362 1505 1663 1640
902 1353 1431 1048 822 784 764 828 639 729 725 510 177 128 111 124 126 127 128 41 9 6 4 6 10 11 5 2 4 7 6 11 11 37 127 198 210 284 343 324 377 382 509 752 1487 1911 1828 1731 1629 1514 1549 1632 1489 1399 1294 1289 1351 1468 1612 1680 1609 1526
890 1230 1244 1314 1102 944 1200 1038 849 830 810 493 333 180 186 162 135 134 111 59 20 1 2 4 6 6 5 4 6 5 0 0 2 31 39 92 160 198 209 210 309 295 324 470 1085 1670 1892 1862 1632 1534 1557 1570 1480 1520 1298 1207 1232 1294 1400 1420 1414 1372
865 1084 1398 1349 1460 1475 1519 1278 800 813 851 656 347 255 218 163 149 136 102 77 46 5 1 1 1 2 0 1 0 0 0 0 0 24 53 164 121 105 129 112 74 169 244 411 851 1393 1934 1856 1712 1550 1559 1574 1520 1374 1337 1342 1264 1230 1334 1459 1352 1411
828 979 1300 1300 1457 1503 1617 1489 1329 836 860 785 375 300 291 208 186 171 156 100 88 26 3 4 3 0 2 0 0 0 0 0 0 39 148 147 122 122 167 99 57 87 208 254 702 1138 1755 1740 1730 1695 1662 1624 1581 1468 1483 1504 1444 1304 1361 1242 1365 1498
815 1158 1224 1291 1463 1507 1272 1516 1050 934 983 801 431 358 290 240 206 213 173 136 141 81 10 4 2 0 4 0 0 0 0 0 0 70 136 149 111 97 163 121 75 182 349 306 307 904 1702 1679 1745 1872 1653 1689 1623 1521 1535 1474 1494 1411 1568 1595 1533 1484
782 960 1009 1190 1356 1185 1069 1013 696 827 1015 787 877 524 385 303 265 214 207 176 144 107 66 8 1 0 0 0 0 0 0 0 23 55 100 137 116 102 115 110 251 356 489 531 420 821 1206 1573 1532 1716 1748 1674 1558 1162 1013 943 806 755 879 852 1087 1225
1007 1060 974 1234 1234 1086 1036 977 871 751 837 569 658 834 439 327 301 276 237 182 151 158 87 55 9 0 0 0 0 0 0 0 13 72 108 97 49 55 66 44 170 458 541 622 514 876 1521 1626 1610 1595 1631 1713 1546 1104 635 534 316 320 292 295 323 376
1003 1024 1070 1107 796 542 405 480 520 688 673 873 751 762 656 413 335 328 330 224 155 161 94 86 30 17 3 0 0 0 0 0 1 15 26 42 42 21 67 97 22 199 362 470 472 569 1038 1585 1717 1790 1604 1596 1627 1473 1266 1121 858 608 365 276 218 217
1023 1109 1246 640 562 622 534 508 639 862 746 607 503 620 925 750 462 454 401 336 195 126 121 122 77 54 2 0 0 0 0 0 0 0 8 10 3 2 12 58 50 23 217 295 436 559 812 1249 1522 1462 1598 1579 1482 1254 874 666 846 1060 892 483 346 337
966 1079 1028 988 921 1066 647 606 536 585 610 478 441 423 483 600 676 714 570 430 369 165 124 99 67 90 24 0 0 0 0 0 0 0 0 0 0 0 0 0 26 59 26 152 179 312 550 1128 666 697 356 320 584 554 418 290 327 460 417 261 134 139
872 884 947 996 866 798 1043 1213 1046 943 663 610 886 857 773 878 884 756 692 478 432 375 187 83 79 41 18 16 5 0 0 0 0 0 0 0 0 0 0 0 0 49 19 15 44 72 263 354 346 426 555 390 198 270 269 193 258 415 320 224 119 128
951 1088 895 867 968 1065 1207 1318 1234 1228 1075 705 570 784 888 860 654 616 680 616 538 480 355 234 82 16 42 26 9 2 0 0 0 2 0 0 0 0 0 0 0 0 30 0 1 0 37 137 195 355 118 130 16 338 61 80 197 208 245 218 202 154
925 938 882 960 1086 1118 1224 1178 1128 1239 967 1006 737 553 445 520 544 586 550 694 710 613 511 402 230 74 25 62 30 26 11 3 1 2 0 0 0 0 0 0 0 0 5 54 0 0 0 18 44 63 92 203 265 34 49 71 11 200 85 44 72 66
925 983 901 1125 1152 1053 861 879 850 755 695 656 649 645 654 743 625 695 888 917 800 658 626 591 397 210 76 104 107 33 17 4 6 10 4 0 0 0 0 0 0 0 0 0 0 0 16 0 0 0 1 1 0 0 0 0 10 0 103 0 0 0
961 986 1022 1108 1167 1104 1090 963 988 877 880 800 746 872 912 984 906 797 826 970 860 879 687 693 737 488 246 166 198 141 81 33 32 40 1 9 1 0 0 0 0 0 0 0 0 0 0 10 0 0 0 0 0 0 0 0 0 0 0 15 16 0
1006 937 845 1013 1086 1131 948 1125 1200 1198 980 847 826 979 990 1005 1162 955 959 946 907 912 881 886 851 644 465 314 302 256 148 143 50 4 3 18 2 0 0 20 61 15 0 0 6 8 0 0 0 0 0 0 0 0 0 0 0 0 0 0 0 0
1092 1095 1130 1217 1000 1067 1106 1094 1049 850 902 836 945 923 867 805 947 1116 1087 1094 1148 1154 1083 1078 931 952 828 704 504 504 410 382 322 173 2 91 60 5 3 5 2 16 39 7 16 1 0 0 0 0 0 0 0 0 0 0 0 0 0 0 0 0
1200 1058 1133 1360 1150 1170 1292 1190 1151 1186 983 906 914 976 938 1054 1066 1092 1107 1137 1084 1070 1062 1194 1144 1058 978 810 798 687 586 523 574 310 204 298 356 212 77 24 5 0 30 94 65 5 0 0 0 0 0 0 0 0 0 0 0 0 1 0 2 2
1206 962 1225 1258 1257 1277 1268 1182 927 1108 1109 999 1062 1056 1053 1094 1096 1186 1103 1091 1116 1120 1148 1168 1245 1297 1176 1064 1087 942 873 701 697 639 648 619 495 338 254 167 81 52 90 14 42 41 9 26 10 10 4 1 5 3 3 0 0 2 4 2 2 3
1328 1258 1266 1252 1351 1191 1112 1279 1200 1354 1305 1262 1233 1098 1129 1191 925 1086 1211 1197 1234 1115 1169 1208 1299 1313 1282 1197 1341 1272 1191 1101 962 1031 982 878 820 546 426 396 340 301 277 233 198 186 216 132 80 101 99 28 12 14 16 5 0 13 8 10 12 7
1321 1380 1324 1293 1444 1366 1359 1301 1303 1466 1474 1402 1424 1187 1096 1191 1084 1172 1132 1155 1305 1076 1114 1052 1228 1110 1222 1290 1282 1426 1366 1451 1500 1533 1324 1092 1062 1044 949 814 745 648 515 447 362 310 268 251 210 128 156 109 70 22 16 2 3 2 16 16 12 12
1218 1450 1456 1427 1350 1360 1455 1417 1596 1555 1553 1454 1628 1516 1382 1210 1272 1274 1289 1252 1203 1298 1294 1327 1278 1299 1208 1253 1323 1326 1469 1529 1546 1551 1430 1491 1500 1314 1356 1058 850 819 742 627 594 590 234 268 270 235 163 158 87 77 83 24 24 6 14 14 15 18
1170 1410 1474 1496 1418 1438 1397 1653 1640 1679 1625 1485 1441 1337 1453 1437 1523 1423 1353 1318 1362 1353 1452 1334 1300 1324 1366 1482 1479 1506 1457 1447 1531 1594 1516 1522 1502 1491 1544 1629 1388 1475 1254 1224 1100 977 826 720 479 231 261 206 177 122 112 78 37 31 8 14 3 4
1273 1305 1468 1502 1441 1505 1564 1518 1878 1798 1514 1595 1475 1326 1353 1272 1437 1583 1459 1568 1418 1570 1547 1480 1478 1468 1574 1569 1627 1666 1727 1739 1714 1658 1585 1513 1614 1463 1507 1483 1398 1291 1254 1001 933 1174 1430 1263 1272 1316 1102 680 300 95 66 98 84 73 66 45 11 9
1298 1276 1404 1520 1585 1580 1625 1807 1996 1769 1510 1350 1384 1389 1405 1530 1566 1552 1657 1678 1590 1496 1506 1683 1604 1629 1634 1724 1890 2012 1973 2144 2346 2380 2268 2146 2039 1815 1786 1594 1513 1380 1265 1084 1180 902 1043 1326 1289 1301 1302 1222 1252 1075 888 301 364 419 295 192 66 51
Wind_Speed
12 11 8 8 10 10 10 11 nan 10 7 nan nan nan nan nan 5 4 7 8 9 10 11 12 12 13 11 10 9 9 10 16 13 10 10 10 10 10 10 9 9 9 8 7 5 2 3 3 3 6 6 4 5 4 6 8 3 4 4 6 5 8
12 11 8 8 9 9 9 nan 6 5 nan nan nan nan nan nan nan 6 7 9 9 10 12 12 13 15 14 14 13 14 12 11 10 10 10 10 10 9 8 7 8 8 9 9 11 8 4 1 2 5 3 7 5 3 7 5 4 4 4 4 4 6
11 11 9 8 8 8 7 nan 6 4 nan nan nan nan nan nan nan nan nan 8 11 12 12 13 14 16 16 13 14 16 15 11 7 7 11 14 10 9 7 8 9 10 10 13 10 6 7 5 2 6 7 5 1 2 4 5 3 2 1 3 2 5
11 11 10 8 7 nan 7 8 6 6 nan nan nan nan nan nan nan nan 9 nan nan 14 13 15 15 17 18 17 16 17 16 16 10 4 11 16 15 9 9 10 11 16 15 8 7 7 6 5 4 4 3 3 1 1 4 5 4 5 5 4 1 2
12 11 11 10 9 7 7 6 6 7 nan nan nan nan nan nan nan nan nan nan nan nan nan nan nan 17 17 16 16 15 14 13 12 11 17 14 10 9 12 9 9 10 7 8 7 7 6 4 4 3 2 2 2 2 4 5 5 6 6 6 3 3
13 12 12 12 10 8 7 6 7 7 nan nan nan nan nan nan nan nan nan nan nan nan nan nan nan 18 18 16 16 16 14 14 14 13 16 12 11 11 10 9 10 9 8 8 7 6 6 6 4 3 2 2 3 4 3 5 6 7 6 7 3 2
15 15 14 13 12 9 8 7 6 7 8 nan nan nan nan nan nan nan nan nan nan nan nan nan nan nan nan nan 17 16 16 15 16 14 16 15 13 12 12 11 11 9 10 9 8 6 6 5 5 4 3 3 3 3 4 5 7 7 7 8 3 3
16 17 15 14 12 11 9 9 8 8 7 9 nan nan nan nan nan nan 12 nan nan nan nan nan nan nan nan nan nan 17 17 16 17 16 17 16 14 14 13 13 11 10 10 10 7 7 6 6 6 6 4 3 4 3 3 4 6 6 7 7 3 5
16 17 16 16 13 12 11 11 10 10 10 nan nan nan nan nan nan nan nan nan nan nan nan nan nan nan nan nan nan 18 nan 16 17 17 18 17 16 15 14 14 13 12 11 10 8 7 7 7 7 6 5 5 4 4 4 5 6 7 7 7 6 6
15 15 17 17 17 15 15 13 11 11 12 nan 11 nan nan nan nan nan nan nan nan nan nan nan nan nan nan nan nan nan nan nan nan 18 19 18 18 18 18 17 17 16 16 14 12 11 11 9 8 8 7 7 6 6 6 6 6 7 9 9 6 5
14 15 16 16 17 17 17 16 15 14 13 13 14 nan nan nan nan nan nan nan nan nan nan nan nan nan nan nan nan nan nan nan nan 18 18 18 18 19 18 18 19 20 20 19 18 16 16 14 13 12 11 9 9 9 9 8 9 9 9 10 9 9
13 14 15 15 16 17 18 18 18 18 16 15 16 16 nan nan 13 12 nan nan nan nan nan nan nan nan nan nan nan nan nan nan nan nan 17 18 16 17 16 17 18 19 20 20 19 19 19 18 17 16 16 14 14 13 12 10 10 9 9 10 10 10
13 13 13 14 15 16 17 18 18 19 19 19 17 17 16 15 15 13 13 nan nan nan nan nan nan nan nan nan nan nan nan nan nan nan 16 17 15 16 15 16 16 17 17 17 17 17 18 17 17 17 17 17 16 16 15 14 12 11 11 11 11 10
12 12 12 13 14 14 15 16 17 18 19 19 18 18 17 16 15 15 14 nan nan nan nan nan nan nan nan nan nan nan nan nan nan nan nan nan 13 14 13 14 15 15 16 16 15 15 16 15 15 15 15 15 15 15 15 14 14 14 14 13 13 12
11 11 13 12 12 13 14 15 16 17 17 18 18 18 17 16 15 15 15 nan nan nan nan nan nan nan nan nan nan nan nan nan nan nan nan 13 13 12 11 12 nan 14 14 14 14 14 13 12 12 12 13 13 13 13 14 13 13 13 14 15 15 14
10 11 11 12 12 13 14 15 15 15 16 16 17 16 16 16 16 15 14 nan nan nan nan nan nan nan nan nan nan nan nan nan nan nan 12 12 12 10 10 nan nan nan 12 12 12 12 12 12 11 12 12 13 13 13 13 13 13 13 13 14 14 14
9 10 11 12 12 13 13 14 13 14 14 14 14 14 14 15 15 15 15 14 14 nan nan nan nan nan nan nan nan nan nan nan nan nan 12 11 10 nan 9 9 nan 10 11 12 11 11 11 11 12 11 11 11 12 12 12 12 12 12 13 12 12 12
8 9 10 11 12 13 12 13 12 12 12 12 13 13 13 14 14 14 14 14 14 13 nan nan nan nan nan nan nan nan nan nan nan nan 12 11 11 10 9 9 8 8 10 11 11 11 11 11 11 11 11 11 11 12 12 12 12 11 11 10 10 9
9 9 11 12 13 13 13 12 12 12 11 11 12 12 12 12 12 12 13 13 13 13 nan nan nan nan nan nan nan nan nan nan nan nan 12 nan nan nan nan nan 10 9 11 11 12 12 12 13 13 13 12 11 12 11 13 12 12 12 11 10 9 9
9 10 11 13 14 13 12 11 11 11 11 11 11 11 11 11 11 11 11 12 13 13 nan nan nan nan nan nan nan nan nan nan nan nan nan nan nan nan nan nan nan 10 10 10 11 11 12 13 13 13 13 12 12 12 12 13 13 13 12 11 11 10
9 11 12 12 12 12 13 12 13 12 12 12 12 11 11 11 11 10 10 11 12 12 12 12 nan nan nan nan nan nan nan nan nan nan nan nan nan nan nan nan nan nan 8 8 7 9 10 13 13 13 13 13 12 11 10 10 10 11 11 12 12 11
9 10 12 13 13 13 14 14 15 13 14 14 14 13 13 13 13 12 12 12 13 13 13 nan nan nan nan nan nan nan nan nan nan nan nan nan nan nan nan nan nan nan nan 5 5 5 7 11 12 12 13 13 13 12 11 9 9 9 10 10 10 10
9 11 12 13 15 14 15 15 15 15 15 15 14 15 15 15 15 14 14 14 14 15 14 nan nan nan nan nan nan nan nan nan nan nan nan nan nan nan nan nan nan nan nan nan nan nan 4 6 8 9 10 12 11 13 13 13 11 9 9 9 9 9
10 11 12 13 14 15 15 15 16 16 16 16 15 15 15 15 14 14 14 15 15 15 16 15 nan nan nan nan nan nan nan nan nan nan nan nan nan nan nan nan nan nan nan nan nan nan nan 2 4 7 9 7 nan 10 nan nan 9 11 10 9 9 9
11 12 12 13 15 15 16 16 16 17 16 16 15 14 14 13 13 13 14 14 14 15 15 15 15 nan nan nan nan nan nan nan nan nan nan nan nan nan nan nan nan nan nan nan nan nan nan nan nan nan nan 9 12 nan nan nan nan 11 nan nan nan nan
12 12 13 14 15 16 16 15 15 15 14 13 12 12 11 12 12 12 12 13 12 13 13 13 14 14 nan 13 14 nan nan nan nan nan nan nan nan nan nan nan nan nan nan nan nan nan nan nan nan nan nan nan nan nan nan nan nan nan 14 nan nan nan
12 12 12 13 14 15 14 14 13 13 12 11 11 10 11 11 11 11 11 11 11 12 12 11 11 11 12 12 12 12 nan nan nan nan nan nan nan nan nan nan nan nan nan nan nan nan nan nan nan nan nan nan nan nan nan nan nan nan nan nan nan nan
12 12 12 12 13 14 13 13 12 12 12 11 10 10 11 12 12 12 11 11 12 11 11 11 10 9 9 10 10 10 10 9 nan nan nan nan nan nan nan nan nan nan nan nan nan nan nan nan nan nan nan nan nan nan nan nan nan nan nan nan nan nan
12 11 11 12 12 12 12 12 13 12 12 12 12 12 13 13 13 13 13 12 13 12 12 12 11 10 10 9 11 11 11 11 9 8 nan nan nan nan nan nan nan nan nan nan nan nan nan nan nan nan nan nan nan nan nan nan nan nan nan nan nan nan
10 10 10 11 12 11 11 13 13 12 11 11 12 12 12 12 13 14 12 13 13 13 12 12 12 12 11 11 11 12 14 13 13 11 10 9 9 10 nan nan nan nan nan nan nan nan nan nan nan nan nan nan nan nan nan nan nan nan nan nan nan nan
9 9 9 10 11 11 11 12 12 12 11 11 11 11 12 12 12 13 13 13 13 12 12 12 12 11 11 10 11 13 14 15 15 15 14 13 11 10 10 10 nan nan nan nan nan nan nan nan nan nan nan nan nan nan nan nan nan nan nan nan nan nan
7 8 8 9 10 10 11 11 11 12 11 10 10 12 11 12 12 12 13 14 15 15 14 14 14 13 12 11 11 12 14 15 16 17 16 15 15 13 12 12 12 12 11 11 11 11 9 8 nan 10 nan nan nan nan nan nan nan nan nan nan nan nan
5 6 7 8 9 10 10 10 10 11 12 10 11 12 11 12 12 12 15 15 16 17 18 18 17 17 16 14 14 14 14 15 17 18 19 19 18 18 17 16 15 14 14 13 12 12 12 12 11 11 10 11 nan nan nan nan nan nan nan nan nan nan
4 6 6 7 8 9 9 9 9 10 10 11 11 11 10 10 11 13 15 16 17 18 19 20 20 19 19 18 17 15 15 15 16 17 18 18 19 19 20 19 18 17 16 16 16 16 15 15 14 14 14 14 nan nan nan nan nan nan nan nan nan nan
3 5 6 6 7 8 8 9 9 10 10 11 11 10 9 9 11 13 14 15 17 18 19 19 19 19 20 19 19 18 16 16 16 17 18 18 18 19 19 20 19 18 18 17 17 18 17 17 16 16 16 15 14 14 14 nan nan nan nan nan nan nan
3 4 5 6 6 7 8 8 9 9 9 10 9 8 7 8 10 12 13 15 16 18 19 19 19 19 19 19 19 20 20 20 20 20 20 20 20 20 20 20 19 18 18 18 18 18 18 18 18 17 16 16 17 nan nan nan nan nan nan nan nan nan
3 4 5 6 6 7 7 8 9 9 9 10 9 8 7 7 9 10 12 13 14 16 17 18 18 18 18 18 18 19 20 20 20 21 21 21 22 22 22 22 21 20 20 18 18 17 18 18 18 18 18 17 17 17 17 17 18 18 17 16 nan nan
Wind_Direction
354 358 1 1 6 8 18 48 nan 11 12 nan nan nan nan nan 49 37 71 61 61 54 55 51 60 85 91 97 77 83 93 108 112 109 116 116 106 115 133 143 147 142 125 114 98 107 148 154 201 195 190 166 113 83 218 236 355 294 245 226 265 257
5 8 14 17 16 25 37 nan 48 33 nan nan nan nan nan nan nan 64 67 62 65 67 66 67 72 86 96 90 86 94 95 97 118 131 113 108 116 127 133 133 121 121 105 93 90 84 80 139 195 170 161 107 77 207 254 359 329 308 265 236 222 259
14 20 21 22 28 32 44 nan 58 53 nan nan nan nan nan nan nan nan nan 77 76 76 74 74 75 82 81 81 81 91 93 92 94 105 122 114 120 114 111 109 104 90 83 75 90 127 123 128 127 32 53 74 166 198 275 7 340 15 92 166 192 241
24 30 35 35 40 nan 46 61 60 65 nan nan nan nan nan nan nan nan 74 nan nan 83 81 76 82 79 78 79 70 65 73 68 54 82 98 103 69 68 68 59 76 84 73 110 128 127 132 128 128 123 105 83 113 194 339 7 10 42 66 96 126 226
32 39 43 42 40 43 59 59 62 65 nan nan nan nan nan nan nan nan nan nan nan nan nan nan nan 86 82 85 88 88 89 96 93 74 71 74 87 74 63 92 81 84 114 109 130 138 135 137 125 86 69 90 71 46 10 4 28 50 58 83 93 135
42 47 49 50 48 40 56 67 64 68 nan nan nan nan nan nan nan nan nan nan nan nan nan nan nan 86 89 85 89 90 89 90 91 94 94 89 89 86 81 82 91 103 109 110 115 123 114 113 85 91 76 39 33 35 28 10 34 55 69 82 81 178
48 48 53 58 52 53 62 73 78 78 88 nan nan nan nan nan nan nan nan nan nan nan nan nan nan nan nan nan 89 90 90 90 91 92 96 94 93 88 89 86 93 102 109 114 114 108 107 109 107 90 58 26 18 19 23 20 33 49 59 76 37 343
53 56 57 58 60 58 65 77 78 77 77 81 nan nan nan nan nan nan 102 nan nan nan nan nan nan nan nan nan nan 91 89 91 93 94 94 93 91 90 87 86 90 95 99 103 104 100 99 102 91 78 74 54 18 19 32 31 37 43 54 76 40 25
58 59 62 66 62 60 63 69 74 76 73 nan nan nan nan nan nan nan nan nan nan nan nan nan nan nan nan nan nan 89 nan 88 91 93 94 94 92 89 87 88 89 90 88 91 85 80 76 74 67 71 59 42 37 25 21 27 38 36 44 62 42 17
64 67 67 66 62 60 63 65 67 71 73 nan 73 nan nan nan nan nan nan nan nan nan nan nan nan nan nan nan nan nan nan nan nan 91 93 93 91 87 87 87 88 86 87 81 79 76 73 69 72 70 67 56 48 43 39 35 44 40 37 45 58 37
63 66 69 68 65 63 64 66 69 72 72 74 73 nan nan nan nan nan nan nan nan nan nan nan nan nan nan nan nan nan nan nan nan 91 92 94 90 87 84 85 86 86 85 83 76 70 70 66 63 61 65 65 59 49 43 41 38 38 37 38 27 35
65 65 66 65 63 64 66 66 66 67 67 73 75 74 nan nan 82 84 nan nan nan nan nan nan nan nan nan nan nan nan nan nan nan nan 94 95 92 89 83 81 83 79 77 77 73 69 68 66 65 64 64 61 59 54 48 43 42 44 36 34 36 32
62 60 63 65 65 63 64 66 65 67 66 69 74 76 77 78 79 80 79 nan nan nan nan nan nan nan nan nan nan nan nan nan nan nan 93 95 92 86 81 76 73 75 75 69 68 62 61 61 61 61 62 62 59 59 55 49 45 43 43 39 39 37
60 56 61 62 64 64 67 66 67 65 66 69 70 72 75 75 80 81 76 nan nan nan nan nan nan nan nan nan nan nan nan nan nan nan nan nan 84 81 76 75 74 69 69 65 62 58 56 56 56 54 55 54 54 57 56 53 50 46 46 45 44 41
59 53 51 53 58 63 65 65 65 65 64 69 67 68 71 74 77 81 83 nan nan nan nan nan nan nan nan nan nan nan nan nan nan nan nan 86 83 78 75 75 nan 69 61 59 54 50 45 42 44 46 49 51 47 42 41 41 40 39 40 42 45 43
56 48 47 51 53 59 62 63 61 61 61 64 66 66 69 72 76 81 81 nan nan nan nan nan nan nan nan nan nan nan nan nan nan nan 91 85 82 74 71 nan nan nan 63 58 54 45 37 30 32 33 34 36 37 35 33 31 32 29 32 33 36 39
51 41 42 48 54 57 61 59 58 57 57 62 66 66 66 67 70 73 82 83 86 nan nan nan nan nan nan nan nan nan nan nan nan nan 88 86 80 nan 75 66 nan 66 63 56 46 40 35 31 24 26 28 30 31 33 31 31 30 26 24 26 26 30
48 42 48 54 59 63 62 62 59 58 60 59 64 67 66 67 66 69 72 76 82 85 nan nan nan nan nan nan nan nan nan nan nan nan 77 79 85 84 83 82 69 65 63 57 49 51 45 43 38 32 29 33 35 33 30 29 27 28 25 20 20 20
43 43 48 57 62 64 63 62 62 60 58 58 57 62 67 66 67 68 66 66 74 81 nan nan nan nan nan nan nan nan nan nan nan nan 84 nan nan nan nan nan 89 74 68 65 60 55 59 53 47 42 42 41 41 39 38 37 36 33 29 25 21 17
43 47 56 63 67 69 70 72 69 63 66 68 66 65 68 72 71 72 67 69 70 75 nan nan nan nan nan nan nan nan nan nan nan nan nan nan nan nan nan nan nan 90 78 67 64 61 58 56 46 46 39 40 44 41 41 43 42 41 40 38 35 32
45 54 66 72 76 84 84 77 75 75 73 71 71 66 67 74 76 74 77 71 69 71 73 78 nan nan nan nan nan nan nan nan nan nan nan nan nan nan nan nan nan nan 75 70 64 62 58 57 47 37 37 30 29 33 35 38 42 43 44 45 45 45
55 60 71 80 82 83 88 90 90 86 83 81 79 79 78 76 76 74 76 73 70 70 69 nan nan nan nan nan nan nan nan nan nan nan nan nan nan nan nan nan nan nan nan 48 50 73 58 50 37 32 30 20 19 22 17 22 31 29 33 32 37 42
67 71 74 80 84 88 88 91 92 89 89 81 79 80 79 77 76 75 75 73 72 70 73 nan nan nan nan nan nan nan nan nan nan nan nan nan nan nan nan nan nan nan nan nan nan nan 52 70 39 42 34 34 15 20 12 7 9 15 17 19 21 25
72 78 81 83 87 87 90 88 86 86 81 83 81 76 72 71 72 74 74 76 73 72 73 73 nan nan nan nan nan nan nan nan nan nan nan nan nan nan nan nan nan nan nan nan nan nan nan 44 51 61 21 31 nan 40 nan nan 16 1 360 4 360 356
78 81 84 84 85 86 82 79 80 75 73 69 69 72 73 74 75 73 74 75 74 74 72 69 67 nan nan nan nan nan nan nan nan nan nan nan nan nan nan nan nan nan nan nan nan nan nan nan nan nan nan 32 19 nan nan nan nan 356 nan nan nan nan
85 87 87 84 85 84 82 81 76 72 70 71 69 74 78 79 76 76 74 69 67 69 67 66 62 64 nan 66 63 nan nan nan nan nan nan nan nan nan nan nan nan nan nan nan nan nan nan nan nan nan nan nan nan nan nan nan nan nan 349 nan nan nan
92 93 89 87 82 82 80 79 75 73 74 72 69 66 68 70 73 71 68 68 68 67 64 59 62 56 54 59 61 62 nan nan nan nan nan nan nan nan nan nan nan nan nan nan nan nan nan nan nan nan nan nan nan nan nan nan nan nan nan nan nan nan
97 96 91 83 78 79 77 73 69 67 67 68 68 65 67 66 69 73 74 72 69 67 71 69 64 63 56 49 54 52 49 45 nan nan nan nan nan nan nan nan nan nan nan nan nan nan nan nan nan nan nan nan nan nan nan nan nan nan nan nan nan nan
97 93 87 78 77 72 75 72 68 63 60 60 59 60 60 63 65 70 71 66 68 67 64 67 67 62 62 57 54 51 50 42 35 32 nan nan nan nan nan nan nan nan nan nan nan nan nan nan nan nan nan nan nan nan nan nan nan nan nan nan nan nan
92 91 81 72 74 69 69 70 66 65 65 60 59 59 64 60 62 66 64 65 61 59 58 52 51 53 55 53 55 49 41 33 31 29 36 33 33 29 nan nan nan nan nan nan nan nan nan nan nan nan nan nan nan nan nan nan nan nan nan nan nan nan
90 90 77 71 68 64 67 69 65 64 66 63 62 60 60 57 61 64 67 62 61 57 55 50 46 42 42 46 42 36 34 32 33 37 37 36 31 26 26 25 nan nan nan nan nan nan nan nan nan nan nan nan nan nan nan nan nan nan nan nan nan nan
82 81 76 71 67 65 65 65 67 65 65 66 60 57 58 62 62 62 64 62 58 56 51 46 42 36 31 32 31 31 38 44 45 46 44 42 39 36 30 26 24 23 21 20 18 19 10 6 nan 355 nan nan nan nan nan nan nan nan nan nan nan nan
70 69 70 63 61 60 61 60 59 57 58 55 54 55 53 57 64 62 66 62 61 56 52 47 43 39 36 40 44 50 54 53 51 49 50 49 46 43 42 35 31 27 23 22 18 16 17 16 12 8 356 348 nan nan nan nan nan nan nan nan nan nan
58 56 59 56 52 52 53 53 51 54 52 46 44 49 54 59 61 67 66 66 62 59 54 50 45 43 45 48 52 56 58 54 50 50 49 51 52 50 46 45 40 36 31 25 21 20 18 16 13 11 6 2 nan nan nan nan nan nan nan nan nan nan
48 34 39 41 41 44 44 40 42 43 45 42 40 43 50 57 67 67 69 66 62 56 54 51 48 46 48 51 54 56 57 54 51 52 54 54 53 52 49 46 45 41 36 29 26 22 20 18 13 9 7 5 358 350 342 nan nan nan nan nan nan nan
37 10 18 23 28 33 35 31 31 34 35 36 43 47 49 59 66 74 69 66 57 57 55 52 50 51 49 52 55 58 57 55 55 56 56 57 56 54 53 49 45 41 38 27 24 20 14 8 2 1 357 353 352 nan nan nan nan nan nan nan nan nan
11 354 2 5 17 17 20 24 21 26 29 25 35 43 50 54 71 73 74 69 64 61 56 52 50 48 51 54 58 62 63 61 58 56 55 53 51 50 48 46 42 39 34 27 21 16 5 1 353 348 342 339 335 329 324 325 327 328 323 320 nan nan